Location: ??????????
(41.2581°N, 22.8006°E)
Time: 23:48:07
(UTC+00:00)

GEOS 3 Rocket - Visible Passes

Search period start: 14 March 2026 00:00
Search period end: 24 March 2026 00:00
Orbit: 768 x 846 km, 115.0° (Epoch: 14 March)

Date Brightness Start Highest point End Pass type
(mag) Time Alt. Az. Time Alt. Az. Time Alt. Az.
14 Mar 4.3 01:56:19 10° NE 02:01:33 49° ESE 02:01:46 49° SE visible
14 Mar 4.5 03:34:31 10° NNE 03:39:18 33° NW 03:42:50 16° W visible
15 Mar 5.2 01:32:05 10° ENE 01:36:38 27° ESE 01:36:38 27° ESE visible
15 Mar 3.9 03:09:30 10° NNE 03:14:45 54° NW 03:17:41 25° WSW visible
16 Mar 6.0 01:08:40 10° ENE 01:11:30 15° ESE 01:11:30 15° ESE visible
16 Mar 3.6 02:44:40 10° NE 02:50:05 90° ESE 02:52:34 34° SW visible
17 Mar 4.3 02:20:03 10° NE 02:25:18 51° ESE 02:27:29 32° S visible
17 Mar 4.6 03:58:18 10° NNE 04:03:02 32° NW 04:07:44 10° WSW visible
18 Mar 5.2 01:55:48 10° ENE 02:00:24 29° ESE 02:02:25 22° SSE visible
18 Mar 3.9 03:33:17 10° NNE 03:38:30 52° NW 03:43:30 11° WSW visible
19 Mar 6.0 01:32:17 10° ENE 01:35:23 15° ESE 01:37:24 13° SE visible
19 Mar 3.6 03:08:25 10° NE 03:13:51 87° NW 03:18:28 14° SW visible
20 Mar 4.3 02:43:47 10° NE 02:49:04 54° ESE 02:53:28 14° SSW visible
21 Mar 5.3 02:19:30 10° ENE 02:24:11 30° ESE 02:28:31 11° S visible
21 Mar 4.0 03:57:03 10° NNE 04:02:15 50° NW 04:07:22 10° WSW visible
22 Mar 6.1 01:55:54 10° ENE 01:59:09 16° ESE 02:02:23 10° SSE visible
22 Mar 3.7 03:32:10 10° NE 03:37:35 85° NW 03:42:55 10° SW visible
23 Mar 4.3 03:07:32 10° NE 03:12:49 56° ESE 03:18:01 10° SSW visible
